Weather WX

World > North America > United States > Pennsylvania

Blakeslee, Pennsylvania Regional Weather

Lat: 41.09N, Lon: 75.59W
Wx Zone: PAZ055
Feedback

Blakeslee, PA Regional Weather

Expires:201906252300;;073110
ASUS41 KOKX 252205
RWROKX

Regional Weather Roundup
National Weather Service New York NY
600 PM EDT TUE JUN 25 2019

Note: "FAIR" indicates few or no clouds below 12,000 feet with no
significant weather and/or obstructions to visibility.


PAZ047>061-062-071-252300-
Eastern Pennsylvania
  
CITY           SKY/WX    TMP DP  RH WIND       PRES   REMARKS
Philadelphia   PTSUNNY   87  61  41 W13       29.84R                  
Allentown      FAIR      86  63  45 W10       29.83S                  
Scranton       FAIR      86  62  44 W10       29.85S                  
$$


SKY/WX - Weather  TMP - Temperature  DP - Dew Point  RH - Relative Humidity
WIND - Wind Direction/Speed PRES - Barometric Pressure VSB - Visibility
WCI - Wind Chill Index E13G22 Wind - East Wind 13 mph/Gusts of 22 mph